{"data":{"norad_id":68638,"intl_designator":"2026-075C","name":"QIANFAN-111","alt_names":[],"object_type":"PAYLOAD","status":"ACTIVE","operator":null,"country":"PRC","launch_date":"2026-04-07","launch_site_code":"WSC","launch_vehicle":null,"mission":null,"orbit_class":"UNKNOWN","rcs_meters":null,"size_class":null,"mass_kg":null,"dimensions":null,"purposes":[],"wikipedia_slug":null,"has_3d_model":false,"image_url":null,"decayed_at":null,"tle_current":{"epoch":"2026-09-20T03:51:50.037120Z","epoch_age_seconds":92544,"freshness":"FRESH","line1":"1 68638U 26075C   26263.16099580  .00000048  00000+0  54975-4 0  9993","line2":"2 68638  88.9864 311.3018 0002221  96.6386 263.5018 13.51021285 22634","mean_motion":13.51021285,"eccentricity":0.0002221,"inclination_deg":88.9864,"raan_deg":311.3018,"arg_perigee_deg":96.6386,"mean_anomaly_deg":263.5018,"bstar":5.4975e-5,"rev_number":2263,"period_min":106.58603354277,"perigee_km":1066.8494720965,"apogee_km":1070.1572697493,"semimajor_km":7446.6403709229,"source":"CELESTRAK","updated_at":"2026-09-20T09:00:24.367839Z"}}}